Location: Narrabri
(30.3170°S, 149.7830°E)
Time: 13:38:10
(UTC+11:00)

Vanguard 1 - Visible Passes

Search period start: 17 December 2017 00:00
Search period end: 27 December 2017 00:00
Orbit: 650 x 3834 km, 34.2° (Epoch: 15 December)

Date Brightness Start Highest point End Pass type
(mag) Time Alt. Az. Time Alt. Az. Time Alt. Az.
17 Dec 11.0 00:04:57 10° W 00:11:43 69° S 00:24:31 10° E visible
17 Dec 11.6 02:24:48 10° WSW 02:34:40 85° NNW 02:53:27 10° ENE visible
17 Dec 12.6 04:45:57 10° W 04:59:04 47° NNW 05:19:30 10° NNE visible
17 Dec 10.0 22:06:22 10° WNW 22:11:24 82° SSW 22:19:49 10° ESE visible
18 Dec 11.0 00:25:59 10° WSW 00:33:04 71° S 00:46:35 10° E visible
18 Dec 11.6 02:45:50 10° WSW 02:56:03 74° NNW 03:15:07 10° ENE visible
18 Dec 12.8 05:07:39 10° W 05:20:35 37° NNW 05:39:40 10° NNE visible
18 Dec 10.2 22:27:22 10° W 22:32:35 70° S 22:41:24 10° ESE visible
19 Dec 11.0 00:46:59 10° WSW 00:54:23 77° SSE 01:08:39 10° E visible
19 Dec 11.8 03:06:57 10° WSW 03:17:26 63° NNW 03:36:28 10° NE visible
19 Dec 9.5 20:28:55 10° NW 20:33:17 59° NNE 20:39:01 10° ESE visible
19 Dec 10.5 22:48:24 10° W 22:53:48 65° S 23:03:06 10° E visible
20 Dec 11.0 01:07:58 10° WSW 01:15:40 86° SSE 01:30:38 10° ENE visible
20 Dec 12.0 03:28:10 10° W 03:38:50 52° NNW 03:57:28 10° NE visible
20 Dec 9.4 20:49:45 10° WNW 20:54:13 84° NNE 21:00:22 10° ESE visible
20 Dec 10.6 23:09:26 10° WSW 23:15:03 65° S 23:24:55 10° E visible
21 Dec 11.0 01:28:56 10° WSW 01:36:56 82° NNW 01:52:27 10° ENE visible
21 Dec 12.2 03:49:36 10° W 04:00:19 41° NNW 04:18:01 10° NNE visible
21 Dec 9.7 21:10:44 10° W 21:15:16 76° SSW 21:21:42 10° ESE visible
21 Dec 10.6 23:30:26 10° WSW 23:36:17 68° S 23:46:47 10° E visible
22 Dec 11.2 01:49:56 10° WSW 01:58:34 69° NNW 02:14:00 10° NE visible
22 Dec 12.5 04:11:51 12° W 04:21:49 32° NNW 04:38:04 10° NNE visible
22 Dec 10.0 21:31:47 10° W 21:36:23 64° S 21:43:06 10° ESE visible
22 Dec 10.5 23:51:24 10° WSW 23:57:30 76° SSE 23:58:47 64° ESE visible
23 Dec 11.9 02:11:02 10° W 02:22:51 47° NNE 02:35:15 10° NE visible
23 Dec 12.7 04:35:53 15° WNW 04:43:25 24° NNW 04:57:26 10° NNE visible
23 Dec 10.2 21:52:52 10° W 21:57:33 59° S 22:04:37 10° E visible
24 Dec 10.6 00:12:20 10° WSW 00:32:47 - ENE 00:17:25 67° WSW visible
24 Dec 12.3 02:45:45 35° NNE 02:45:45 35° NNE 02:56:07 10° NE visible
24 Dec 12.9 04:58:43 13° WNW 05:05:07 17° NNW 05:15:44 10° N visible
24 Dec 10.2 22:13:55 10° WSW 22:18:43 60° S 22:23:46 19° E visible
25 Dec 11.3 00:33:17 10° WSW 00:55:10 - ENE 00:36:25 35° W visible
25 Dec 12.7 03:08:05 27° N 03:08:05 27° N 03:16:32 10° NNE visible
25 Dec 13.1 05:23:22 10° NW 05:26:57 11° NNW 05:30:52 10° NNW visible
25 Dec 10.1 22:34:54 10° WSW 22:39:53 65° S 22:42:56 34° E visible
26 Dec 12.1 00:54:16 10° WSW 01:17:08 - NE 00:55:36 18° W visible
26 Dec 13.0 03:30:01 20° N 03:30:01 20° N 03:36:22 10° NNE visible
26 Dec 9.9 20:36:00 10° W 20:40:23 59° S 20:45:41 10° ESE visible
26 Dec 10.0 22:55:52 10° WSW 23:01:00 76° SSE 23:02:13 60° ESE visible
